Regional Weather Roundup
Issued by NWS

Home | Current Version | Previous Version | Text Only | Print | Product List | Glossary On
Versions: 1 2 3 4 5 6 7 8 9 10 11 12 13 14 15 16 17 18 19 20 21 22 23 24 25 26 27 28 29 30 31 32 33 34 35 36 37 38 39 40 41 42 43 44 45 46 47 48 49 50
000
ASUS44 KJAN 300010
RWRMS

MISSISSIPPI HOURLY WEATHER ROUNDUP
NATIONAL WEATHER SERVICE JACKSON MS
700 PM CDT FRI MAY 29 2015

NOTE: "FAIR: INDICATES FEW OR NO CLOUDS BELOW 12,000 FEET WITH NO
SIGNIFICANT WEATHER AND/OR OBSTRUCTIONS TO VISIBILITY.

MSZ001>002-007>008-010>013-018>021-025>028-034>036-300100-
NORTHWEST MISSISSIPPI

CITY           SKY/WX    TMP DP  RH WIND       PRES   REMARKS
CLARKSDALE     FAIR      81  73  78 CALM      30.00R
CLEVELAND      FAIR      83  76  78 SE9       29.96R HX  91
GREENWOOD      MOSUNNY   80  68  66 SE13      29.99R
6HR MIN TEMP:  72; 6HR MAX TEMP:  84; 6HR PCP:  0.29;

GREENVILLE     SUNNY     84  71  65 SE12      29.95S
6HR MIN TEMP:  79; 6HR MAX TEMP:  87; 6HR PCP: TRACE;

OLIVE BRANCH   PTSUNNY   75  75 100 SE6       30.01S
OXFORD         FAIR      75  68  78 SE12      30.05R
TUNICA         MOCLDY    79  70  73 SE8       30.00R
$$

MSZ003>006-009-014>017-022>024-029>033-037>039-300100-
NORTHEAST MISSISSIPPI

CITY           SKY/WX    TMP DP  RH WIND       PRES   REMARKS
COLUMBUS AFB   NOT AVBL
CORINTH        FAIR      81  68  65 SE9       30.02S
GOLDN TRIANGLE MOSUNNY   81  66  61 S7        30.04S
STARKVILLE     FAIR      79  70  73 SE3       30.04S
TUPELO         PTSUNNY   78  68  71 S6        30.03F
6HR MIN TEMP:  78; 6HR MAX TEMP:  85;

$$

MSZ040-058-300100-
CENTRAL MISSISSIPPI

CITY           SKY/WX    TMP DP  RH WIND       PRES   REMARKS
JACKSON INTL   MOSUNNY   82  68  62 SE15      30.01S
6HR MIN TEMP:  82; 6HR MAX TEMP:  89;

JACKSON HAWKNS MOSUNNY   82  66  58 SE18      30.02R
6HR MIN TEMP:  82; 6HR MAX TEMP:  90;

MERIDIAN KEY   MOCLDY    74  69  85 S15       30.07R
6HR MIN TEMP:  74; 6HR MAX TEMP:  85; 6HR PCP:  0.02;

MERIDIAN NAS   PTCLDY    82  67  60 SE3       30.05S
6HR MIN TEMP:  79; 6HR MAX TEMP:  85;

RAYMOND        FAIR      81  75  83 SE12G17   30.01R
VICKSBURG      SUNNY     85  70  60 SE12      29.97S
6HR MIN TEMP:  85; 6HR MAX TEMP:  91;

$$

MSZ059>079-300100-
SOUTH MISSISSIPPI

CITY           SKY/WX    TMP DP  RH WIND       PRES   REMARKS
BROOKHAVEN     FAIR      79  73  83 SE6       30.04R
HATTIESBURG    MOCLDY    79  72  79 SE3       30.05F
6HR MIN TEMP:  78; 6HR MAX TEMP:  84;

MCCOMB         MOSUNNY   79  71  76 SE12G20   30.03R
6HR MIN TEMP:  79; 6HR MAX TEMP:  88;

NATCHEZ        CLOUDY    75  70  83 SE8       30.00R
6HR MIN TEMP:  75; 6HR MAX TEMP:  90; 6HR PCP:  0.18;

PINE BELT      PTSUNNY   75  70  83 SE6       30.06F
6HR MIN TEMP:  73; 6HR MAX TEMP:  81; 6HR PCP:  0.16;

$$

MSZ080>082-300100-
COASTAL MISSISSIPPI

CITY           SKY/WX    TMP DP  RH WIND       PRES   REMARKS
BILOXI         CLEAR     82  70  66 S9        30.05S
6HR MIN TEMP:  82; 6HR MAX TEMP:  85;

PASCAGOULA     CLEAR     81  70  69 S9        30.06S
6HR MIN TEMP:  81; 6HR MAX TEMP:  85;

GULFPORT       PTCLDY    82  68  62 SE14      30.04S
6HR MIN TEMP:  82; 6HR MAX TEMP:  85;

$$


USA.gov is the U.S. government's official web portal to all federal, state and local government web resources and services.